STARLINK-36432, 67342

Orbit data source: Space-Track

STARLINK-36432, 67342 is a payload satellite owned by SpaceX/Seattle (US) in LEO that was launched on Fri, 09 Jan 2026 UTC via an FALCON 9 launch vehicle from the Air Force Eastern Test Range (AFETR). Payload-class satellites include a variety of spacecraft equipped with specific instruments for various scientific and technological missions. These include communications satellites like Starlink; space stations such as the ISS; scientific satellites like the Hubble; Earth observation satellites from companies like Planet Labs, Umbra, and HawkEye 360; GPS; miniature CubeSats for education and research; and military/defense satellites.

Loading next visibility...
Identifier
67342, 2026-003J
Orbit
LEO
Country
Flag of USUS
Related business
Manufacturer
SpaceX/Seattle
Mission
Operational Commercial Communications
Bus & Motor
STARLINK V2MO, Unknown motor
Mass
575 kg wet, ~530 kg dry
Launch date (UTC)
2026-01-09 (5 months ago)
Launch vehicle
FALCON 9
Launch site
Air Force Eastern Test Range (AFETR)
Object type
Payload
Rocket body
Debris
Shape & HBR
Box + 2 Pan, 17.7 m
Radar Cross Section
36.964 m², Large (>1 m²)

Expand to show TLE details & history
Last TLE update: 1 day ago

TLE from 1 day ago
0 STARLINK-36432
1 67342U 26003J   26170.59946439  .00018101  00000-0  66537-3 0  9999
2 67342  43.0024  11.1912 0001407 269.9333  90.1358 15.27594747 24417
Epoch: 2026-06-19T14:23Z
TLE epoch observation values (Epoch: 2026-06-19T14:23:13.723Z)
Latitude
0.00003°
Longitude
-112.44207°
Altitude
482.783 km
Speed
7.626 km/s
True Right ascension
00h 44m 45s
True Declination
0° 00' 00"
Sunlit
Object was in daylight at epoch
Visualization orbit readout
Latitude
Unknown
Longitude
Unknown
Altitude
Unknown
Speed
Unknown
Apparent Right ascension
Unknown
Apparent Declination
Unknown
Sunlit
N/A
Visualization observer readout
Local Sidereal Time
10:17:57
Azimuth
Unknown
Elevation
Unknown
Doppler factor
Unknown
Orbital elements
Apogee altitude
485.915 km
Perigee altitude
483.984 km
Semi-major axis
6,863.087 km
Eccentricity
0.00014
Inclination
43.0024°
RAAN
11.1912°
Arg. of periapsis
269.9333°
True anomaly
90.15192°
Mean anomaly
90.1358°
Eccentric anomaly
90.14386°
Mean motion
3.81737 °/min
Orbital period
94.31 mins
BSTAR
0.00066537
Loading maneuver chart data...
Computing Atmospheric mass density...
Loading historical data...
Loading historical data...
Loading historical data...
Loading historical data...
Loading historical data...
Loading historical data...
Loading historical data...

Documentation

Showing up to 5 results
|